Location: Marcé
(47.5801°N, 0.3280°W)
Time: 22:32:25
(UTC+01:00)

Tiangong - Pass Details

Date: 26 October 2021
Orbit: 379 x 384 km, 41.5° (Epoch: 06 December)

Event Time Altitude Azimuth Distance (km) Brightness Sun altitude
Rises 20:00:18 0° 260° (W) 2,274 7.1 -11.9°
Reaches altitude 10° 20:02:38 10° 245° (WSW) 1,417 5.2 -12.2°
Maximum altitude 20:05:14 23° 191° (S) 879 3.0 -12.7°
Enters shadow 20:07:33 12° 139° (SE) 1,320 3.4 -13.1°
